Weather History for Columbia, MO

Change the Weather History Date:

Friday, November 1, 2013

  Actual Average Record
Temperature  
Mean Temperature 53 °F 51 °F  
Max Temperature 61 °F 61 °F 84 °F (1938)
Min Temperature 44 °F 41 °F 16 °F (1895)
Degree Days  
Heating Degree Days 12 14  
Month to date heating degree days 12 14  
Since 1 July heating degree days 336 379  
Cooling Degree Days 0 0  
Month to date cooling degree days 0 0  
Year to date cooling degree days 1322 1247  
Growing Degree Days 2 (Base 50)    
Moisture  
Dew Point 41 °F    
Average Humidity 70    
Maximum Humidity 93    
Minimum Humidity 47    
Precipitation  
Precipitation T in 0.10 in 2.52 in (1948)
Month to date precipitation T 0.10  
Year to date precipitation 38.34 37.03  
Snow  
Snow 0.00 in 0.00 in 0.10 in (1912)
Month to date snowfall 0.0 0.0  
Since 1 July snowfall 0.0 0.0  
Since 1 September snowfall 0.0 0.0  
Snow Depth 0.00 in    
Sea Level Pressure  
Sea Level Pressure 29.77 in    
Wind  
Wind Speed 11 mph (West)    
Max Wind Speed 22 mph    
Max Gust Speed 26 mph    
Visibility 10 miles    
Events      
T = Trace of Precipitation, MM = Missing Value Source: NWS Daily Summary

Daily Weather History Graph

Daily Weather History Graph

Search for Another Location

Airport:

Trip Planner

Search our weather history database for the weather conditions in past years. The results will help you decide how hot, cold, wet, or windy it might be!

Date:

Astronomy

Nov. 01, 2013 Rise Set
Actual Time 7:36 AM CDT 6:08 PM CDT
Civil Twilight 7:08 AM CDT 6:35 PM CDT
Nautical Twilight 6:37 AM CDT 7:07 PM CDT
Astronomical Twilight 6:06 AM CDT 7:38 PM CDT
Moon 5:30 AM CDT (11/1) 5:00 PM CDT (11/1)
Length of Visible Light 11h 27m
Length of Day
10h 31m
Waning Crescent, 4% of the Moon is Illuminated
Nov 1
Waning Crescent
Nov 3
New
Nov 9
First Quarter
Nov 17
Full
Nov 25
Last Quarter

Hourly Weather History & Observations

Time (CDT) Temp. Windchill Dew Point Humidity Pressure Visibility Wind Dir Wind Speed Gust Speed Precip Events Conditions
12:54 AM 45.0 °F 39.3 °F 43.0 °F 93% 29.64 in 10.0 mi SSW 11.5 mph - N/A   Clear
1:54 AM 46.0 °F 41.4 °F 44.1 °F 93% 29.65 in 10.0 mi SW 9.2 mph - N/A   Clear
2:54 AM 46.9 °F - 44.1 °F 90% 29.66 in 10.0 mi WSW 8.1 mph - N/A   Clear
3:54 AM 46.9 °F - 43.0 °F 86% 29.67 in 10.0 mi WSW 9.2 mph - N/A   Clear
4:54 AM 45.0 °F 40.1 °F 42.1 °F 90% 29.68 in 10.0 mi SW 9.2 mph - N/A   Clear
5:54 AM 46.0 °F 41.0 °F 41.0 °F 83% 29.68 in 10.0 mi West 10.4 mph - N/A   Clear
6:54 AM 44.1 °F 40.1 °F 39.9 °F 85% 29.69 in 10.0 mi West 6.9 mph - N/A   Clear
7:54 AM 44.1 °F 40.1 °F 39.9 °F 85% 29.71 in 10.0 mi West 6.9 mph - N/A   Clear
8:54 AM 46.9 °F - 41.0 °F 80% 29.74 in 10.0 mi West 9.2 mph - N/A   Clear
9:54 AM 51.1 °F - 42.1 °F 71% 29.76 in 10.0 mi West 11.5 mph - N/A   Clear
10:54 AM 54.0 °F - 42.1 °F 64% 29.77 in 10.0 mi WNW 15.0 mph - N/A   Clear
11:54 AM 57.0 °F - 42.1 °F 57% 29.78 in 10.0 mi West 16.1 mph 21.9 mph N/A   Clear
12:54 PM 59.0 °F - 42.1 °F 53% 29.77 in 10.0 mi West 13.8 mph - N/A   Clear
1:54 PM 59.0 °F - 39.0 °F 48% 29.77 in 10.0 mi WNW 18.4 mph 25.3 mph N/A   Partly Cloudy
2:54 PM 57.9 °F - 39.9 °F 51% 29.78 in 10.0 mi WNW 15.0 mph 20.7 mph N/A   Clear
3:54 PM 60.1 °F - 41.0 °F 49% 29.78 in 10.0 mi WNW 12.7 mph 20.7 mph N/A   Clear
4:54 PM 57.9 °F - 39.9 °F 51% 29.80 in 10.0 mi West 15.0 mph - N/A   Overcast
5:54 PM 55.9 °F - 39.9 °F 55% 29.82 in 10.0 mi WNW 9.2 mph - N/A   Overcast
6:54 PM 55.0 °F - 37.9 °F 53% 29.85 in 10.0 mi WNW 12.7 mph - N/A   Overcast
7:54 PM 51.1 °F - 37.9 °F 61% 29.87 in 10.0 mi WNW 9.2 mph - N/A   Clear
8:54 PM 48.0 °F - 39.0 °F 71% 29.88 in 10.0 mi West 6.9 mph - N/A   Clear
9:54 PM 46.9 °F - 39.0 °F 74% 29.89 in 10.0 mi West 6.9 mph - N/A   Clear
10:54 PM 48.0 °F - 39.0 °F 71% 29.91 in 10.0 mi WNW 9.2 mph - N/A   Scattered Clouds
11:54 PM 48.0 °F - 39.0 °F 71% 29.90 in 10.0 mi West 12.7 mph - 0.00 in   Clear